Temp
75 74 73 73 73 74 74 74 74 74 74 74 74 74 73 72 81 80 78 79 74 74 75 75 76 76 76 77 77 77 77 76 77
74 73 73 73 73 73 74 74 74 73 74 74 74 73 72 76 81 81 80 77 74 74 75 76 76 76 76 76 76 77 77 76 77
74 74 73 73 73 73 73 73 73 73 74 74 73 72 71 77 81 80 79 72 74 75 76 76 76 76 76 76 76 77 77 77 77
74 74 73 73 73 73 73 73 73 73 73 72 71 70 70 75 80 80 77 72 75 76 76 76 76 76 75 75 75 76 76 77 77
74 73 73 73 73 73 73 73 73 72 71 71 70 70 69 75 79 77 72 72 75 76 75 75 75 75 75 75 74 74 74 74 74
75 70 71 72 72 72 72 72 71 71 70 69 69 68 80 81 79 77 69 72 75 75 75 74 74 74 73 73 73 73 73 73 73
79 72 70 71 71 71 71 71 71 69 79 76 71 80 80 79 78 71 69 72 74 74 73 73 72 72 72 72 71 71 71 71 71
78 78 76 76 69 77 74 74 79 78 79 79 79 78 79 78 77 67 67 70 73 73 72 70 70 70 70 70 70 70 70 70 70
80 80 79 79 79 79 78 77 78 78 78 78 77 77 76 75 75 63 65 68 70 70 69 69 68 68 68 69 68 68 68 68 68
81 80 79 79 79 79 77 77 76 76 77 77 75 74 73 73 73 68 63 66 67 67 67 66 66 66 67 67 67 67 67 66 66
80 79 79 78 77 74 73 74 74 74 74 74 74 73 72 72 70 71 63 63 64 64 64 64 64 65 65 66 66 66 66 65 65
79 78 75 75 75 74 74 73 73 72 71 71 72 71 71 70 69 69 69 61 60 60 61 61 62 62 63 64 65 64 64 63 63
75 72 73 73 73 73 72 71 69 68 68 68 69 69 68 69 68 67 67 65 65 59 59 59 60 60 61 62 62 62 62 62 62
73 72 70 73 71 70 70 67 67 65 65 65 67 66 65 66 67 66 64 62 62 62 61 60 60 60 59 60 61 60 60 60 60
70 70 70 71 68 68 66 65 65 63 63 65 66 65 64 64 64 63 65 63 61 61 60 60 60 60 60 59 59 58 59 59 59
68 66 66 65 63 67 67 64 62 60 61 62 62 62 62 62 62 62 63 62 61 61 61 59 59 59 59 59 58 57 57 57 57
59 60 61 62 64 63 63 62 60 58 58 55 56 56 58 61 62 62 62 60 61 60 59 58 57 56 56 55 56 56 56 55 56
59 59 56 59 62 59 59 58 58 56 57 56 54 52 52 52 60 60 60 60 59 57 57 56 56 56 55 55 54 54 53 54 55
59 59 59 57 59 58 57 59 59 58 54 56 56 53 53 48 48 57 58 59 56 57 56 56 55 55 54 54 54 54 53 53 54
55 54 54 56 57 57 56 57 56 57 54 52 52 52 53 52 47 44 50 54 56 55 55 55 54 54 53 52 52 52 52 52 53
MSLP
1014.90 1015.10 1015.19 1015.31 1015.43 1015.58 1015.65 1015.67 1015.75 1015.80 1015.78 1015.82 1015.78 1015.95 1015.83 1015.59 1014.80 1014.73 1015.05 1015.09 1015.60 1015.77 1015.59 1015.61 1015.54 1015.37 1015.33 1015.25 1015.23 1015.23 1015.31 1015.34 1015.35
1014.99 1015.27 1015.45 1015.56 1015.61 1015.64 1015.73 1015.81 1015.86 1015.97 1015.86 1015.86 1015.88 1015.88 1015.85 1015.44 1014.64 1014.68 1014.90 1015.09 1015.51 1015.65 1015.40 1015.37 1015.39 1015.28 1015.15 1015.14 1015.10 1014.98 1014.99 1015.07 1015.06
1015.11 1015.36 1015.53 1015.66 1015.73 1015.76 1015.82 1015.86 1015.90 1015.95 1015.91 1015.96 1016.10 1015.93 1015.78 1015.10 1014.57 1014.84 1015.01 1015.52 1015.54 1015.51 1015.29 1015.19 1015.11 1014.99 1014.88 1014.95 1014.90 1014.72 1014.72 1014.73 1014.75
1015.03 1015.28 1015.48 1015.61 1015.78 1015.84 1015.84 1015.91 1015.96 1015.88 1015.89 1016.03 1016.07 1015.95 1015.88 1015.45 1014.70 1014.90 1015.12 1015.63 1015.52 1015.34 1015.25 1015.13 1015.11 1015.02 1014.86 1014.80 1014.73 1014.52 1014.46 1014.45 1014.45
1014.99 1015.23 1015.42 1015.62 1015.72 1015.84 1015.88 1015.95 1015.99 1016.00 1016.03 1016.06 1015.91 1015.66 1015.66 1015.31 1014.75 1014.93 1015.82 1015.88 1015.63 1015.53 1015.54 1015.36 1015.19 1015.23 1015.06 1014.80 1014.88 1014.66 1014.50 1014.49 1014.42
1014.82 1015.24 1015.44 1015.73 1015.78 1015.80 1015.86 1015.94 1015.98 1016.00 1016.03 1015.91 1015.82 1015.60 1014.80 1014.87 1015.11 1015.29 1016.29 1016.13 1015.88 1015.75 1015.67 1015.75 1015.56 1015.43 1015.37 1015.12 1015.13 1015.05 1014.85 1014.77 1014.77
1014.04 1014.98 1015.37 1015.55 1015.77 1015.79 1015.84 1015.92 1015.87 1015.67 1015.03 1015.37 1015.56 1015.04 1015.03 1015.10 1015.36 1016.13 1016.48 1016.32 1016.08 1015.93 1015.94 1016.06 1015.96 1015.90 1015.85 1015.64 1015.47 1015.42 1015.33 1015.23 1015.12
1014.26 1014.48 1014.84 1014.93 1015.51 1015.16 1015.49 1015.55 1015.20 1015.35 1015.24 1015.23 1015.23 1015.33 1015.33 1015.40 1015.51 1016.56 1016.86 1016.53 1016.11 1016.18 1016.18 1016.43 1016.50 1016.36 1016.21 1016.19 1015.99 1015.81 1015.64 1015.51 1015.36
1013.66 1013.81 1014.10 1014.39 1014.57 1014.66 1014.95 1015.00 1015.41 1015.51 1015.52 1015.54 1015.57 1015.69 1015.76 1015.89 1015.90 1016.78 1017.05 1016.88 1016.54 1016.57 1016.66 1016.80 1016.89 1016.76 1016.73 1016.63 1016.36 1016.14 1015.94 1015.83 1015.65
1013.28 1013.61 1013.92 1014.18 1014.53 1014.62 1015.07 1015.26 1015.50 1015.59 1015.61 1015.67 1015.91 1016.04 1016.11 1016.14 1016.15 1016.56 1017.17 1017.18 1017.06 1017.27 1017.22 1017.14 1017.18 1017.05 1017.02 1016.96 1016.63 1016.39 1016.30 1016.16 1015.96
1013.22 1013.56 1013.85 1014.26 1014.77 1015.36 1015.55 1015.59 1015.80 1015.89 1015.94 1015.96 1015.85 1015.99 1016.09 1016.22 1016.43 1016.51 1017.33 1017.68 1017.72 1017.67 1017.63 1017.57 1017.56 1017.31 1017.20 1017.07 1016.74 1016.53 1016.39 1016.33 1016.17
1013.05 1013.58 1014.31 1014.73 1015.11 1015.49 1015.71 1015.87 1016.02 1016.15 1016.33 1016.20 1016.06 1016.19 1016.22 1016.28 1016.53 1016.65 1016.72 1017.81 1018.15 1017.98 1017.99 1017.90 1017.91 1017.62 1017.40 1017.15 1016.86 1016.60 1016.47 1016.45 1016.26
1013.64 1013.96 1014.68 1014.99 1015.36 1015.60 1015.82 1016.14 1016.29 1016.49 1016.53 1016.44 1016.34 1016.35 1016.40 1016.32 1016.48 1016.82 1016.96 1017.38 1017.47 1017.92 1017.80 1017.99 1017.93 1017.75 1017.60 1017.35 1017.06 1016.79 1016.63 1016.49 1016.31
1013.99 1014.30 1014.67 1015.02 1015.56 1015.89 1016.12 1016.50 1016.63 1016.81 1016.80 1016.73 1016.47 1016.51 1016.57 1016.65 1016.66 1016.80 1017.28 1017.72 1017.77 1017.61 1017.53 1017.75 1017.71 1017.58 1017.63 1017.47 1017.18 1016.94 1016.72 1016.52 1016.29
1014.10 1014.99 1014.46 1015.24 1015.88 1016.35 1016.63 1016.70 1017.07 1017.28 1017.25 1016.80 1016.44 1016.60 1016.73 1016.80 1016.81 1017.00 1017.23 1017.47 1017.72 1017.53 1017.52 1017.61 1017.47 1017.36 1017.39 1017.32 1017.21 1017.02 1016.77 1016.58 1016.27
1014.63 1015.16 1015.33 1015.66 1016.06 1016.61 1016.85 1017.16 1017.18 1017.68 1017.66 1017.00 1016.52 1016.50 1016.82 1016.89 1016.92 1017.07 1017.10 1017.19 1017.38 1017.46 1017.40 1017.55 1017.50 1017.30 1017.25 1017.10 1017.06 1016.99 1016.74 1016.51 1016.21
1015.37 1015.48 1015.68 1016.34 1016.52 1017.12 1017.23 1017.32 1017.69 1017.89 1018.15 1017.83 1017.23 1016.61 1016.77 1016.70 1016.83 1016.83 1017.05 1017.17 1017.21 1017.31 1017.46 1017.53 1017.43 1017.33 1017.24 1017.06 1016.99 1016.79 1016.73 1016.57 1016.10
1015.34 1015.92 1016.45 1016.59 1017.18 1017.54 1017.55 1017.82 1017.96 1018.02 1018.40 1018.45 1018.08 1017.60 1017.28 1017.22 1016.44 1016.82 1017.02 1017.06 1017.08 1017.36 1017.29 1017.33 1017.22 1017.18 1017.09 1016.88 1016.78 1016.83 1016.77 1016.46 1015.99
1015.47 1015.94 1016.63 1016.82 1017.34 1017.76 1017.75 1018.15 1018.08 1018.22 1018.51 1018.60 1018.62 1018.82 1018.86 1018.36 1017.47 1016.82 1016.96 1016.84 1017.23 1017.10 1017.01 1016.97 1017.00 1016.94 1016.78 1016.63 1016.52 1016.42 1016.37 1016.19 1015.72
1015.98 1016.39 1017.05 1017.09 1017.27 1017.78 1017.89 1018.39 1018.36 1018.72 1018.76 1018.89 1018.98 1018.91 1018.99 1019.06 1018.93 1017.78 1017.16 1017.24 1017.06 1017.04 1016.71 1016.69 1016.50 1016.56 1016.44 1016.36 1016.26 1016.19 1016.22 1015.91 1015.46
Wind_Speed
8 8 8 7 7 6 6 7 7 7 6 4 4 3 3 9 2 2 6 2 7 7 7 7 9 9 8 9 9 9 9 9 10
9 8 8 7 7 7 6 5 5 4 5 6 6 5 5 7 5 4 5 8 7 8 8 8 8 9 10 11 11 11 11 13 11
9 8 7 7 6 6 5 4 3 3 5 5 5 5 6 8 3 5 4 9 9 9 10 10 11 10 10 11 12 12 12 11 12
9 8 6 5 4 3 3 2 2 2 3 3 4 5 6 6 4 5 6 12 10 10 11 9 12 12 13 11 12 13 14 14 14
8 7 6 5 4 3 2 2 2 2 2 1 2 5 10 8 4 5 7 11 10 10 11 10 11 11 12 12 12 15 15 13 12
10 9 7 4 3 3 3 3 1 3 5 3 3 7 2 5 4 6 12 11 10 10 9 10 10 12 13 13 13 14 14 14 15
5 7 5 3 2 3 2 1 5 8 3 5 6 2 4 3 3 7 11 9 9 8 9 10 12 13 13 13 13 14 14 14 14
5 6 6 6 7 6 7 7 3 4 4 3 3 4 5 4 3 9 10 8 6 8 10 11 12 13 13 12 13 13 13 13 13
5 4 3 2 4 3 2 2 2 2 3 4 5 5 4 3 3 8 10 8 5 10 11 11 12 12 12 12 12 13 13 13 13
6 4 4 3 2 3 3 2 1 2 4 3 3 4 4 4 2 5 9 8 10 9 11 11 11 12 12 12 13 12 12 13 14
6 5 4 4 3 3 3 2 2 2 4 4 4 4 3 3 2 1 7 9 8 9 10 11 11 12 13 13 13 13 12 13 15
7 5 4 4 4 4 3 3 2 2 3 5 4 4 4 4 1 1 3 7 7 7 9 11 11 12 14 14 14 13 13 14 16
5 7 5 4 4 3 3 2 1 3 3 4 4 3 4 3 1 1 1 2 1 6 7 8 10 11 13 13 13 13 15 15 16
7 6 7 6 4 3 3 3 3 2 4 4 3 2 2 1 1 2 2 2 2 3 4 5 9 9 10 12 14 13 14 15 16
7 6 7 6 5 4 3 4 3 3 4 5 3 1 1 1 2 3 2 1 2 3 4 5 6 11 9 13 11 13 16 16 16
9 6 6 4 5 3 3 3 3 3 5 3 2 3 3 3 3 3 3 2 3 4 4 5 5 5 14 12 12 15 15 16 18
6 6 6 5 6 5 4 3 2 3 4 3 3 2 3 3 3 3 3 4 3 4 6 7 8 6 6 8 15 14 16 18 20
7 8 6 6 4 4 5 4 4 2 2 5 3 2 2 4 2 2 3 4 2 5 6 7 8 8 7 9 10 15 16 19 22
8 8 7 6 5 4 4 3 3 2 2 2 3 3 3 3 4 1 4 3 5 7 6 6 8 9 7 10 14 16 17 21 25
8 8 5 6 4 4 5 3 4 3 2 2 2 2 2 4 4 6 4 7 6 7 6 7 7 7 7 6 9 16 21 24 26
Wind_Direction
113 103 97 97 92 87 77 70 70 70 68 63 64 40 356 305 245 22 111 11 32 348 331 314 303 299 295 295 278 278 282 282 274
122 113 110 104 102 96 87 80 75 57 34 51 53 43 349 306 349 8 20 62 16 333 328 322 311 302 295 291 289 287 277 275 275
133 126 118 113 105 94 83 69 60 42 24 15 10 11 347 301 349 23 349 37 355 329 324 317 303 295 289 285 286 286 285 275 280
143 140 133 122 113 94 64 51 47 49 46 23 4 346 306 294 7 324 45 17 350 345 359 15 19 26 23 358 320 293 287 283 272
151 164 145 137 117 87 61 61 47 57 78 55 343 291 275 261 342 44 35 2 351 3 7 14 26 24 22 25 26 29 31 12 335
165 95 116 127 118 97 76 65 43 238 191 151 269 277 351 3 21 57 23 358 354 1 13 23 25 34 34 30 25 23 24 22 19
109 116 145 168 175 163 157 195 237 241 183 156 204 315 342 6 360 67 20 358 360 12 35 34 35 29 24 28 30 22 15 11 7
189 162 179 184 196 195 195 190 230 31 13 15 358 340 350 351 9 61 20 358 14 46 54 43 29 23 23 23 17 11 6 2 359
177 181 136 180 183 119 246 82 73 29 16 4 350 346 354 354 348 78 33 10 27 59 51 41 31 24 14 10 10 8 5 2 357
174 161 174 164 150 103 133 87 73 357 346 355 355 336 339 334 344 91 55 48 61 54 48 38 28 19 7 359 358 355 354 350 344
170 167 154 117 93 99 75 65 55 5 345 332 335 314 310 326 358 359 90 70 62 59 45 33 20 12 1 351 347 344 340 342 336
177 126 141 129 114 120 125 105 62 359 340 319 320 328 335 303 271 316 107 135 95 66 41 22 8 2 352 343 340 337 335 333 329
140 150 127 132 129 120 99 62 83 8 340 331 315 323 317 304 236 174 123 34 103 137 64 6 350 348 344 339 336 333 330 326 324
162 150 142 145 126 113 120 83 34 7 336 302 303 352 299 181 172 150 140 103 328 344 21 334 320 332 330 326 325 329 328 325 322
117 159 125 133 127 123 99 102 82 23 343 304 293 27 300 189 189 176 227 150 302 307 318 330 328 323 319 320 321 326 327 325 321
138 118 100 122 103 104 100 102 67 43 346 298 335 177 179 207 213 213 270 203 272 301 326 328 330 323 324 315 323 322 323 322 323
137 135 127 97 113 105 92 62 94 80 18 343 267 326 171 197 220 216 293 276 301 309 326 324 321 319 316 310 317 320 322 321 319
118 105 94 94 98 107 89 74 29 85 88 32 355 321 321 351 187 212 242 291 310 305 314 310 313 315 307 312 321 316 314 314 314
123 111 123 107 125 111 103 72 71 23 63 158 54 24 349 325 309 117 238 342 294 299 308 304 302 306 297 304 307 310 312 313 311
110 108 113 108 110 110 103 105 64 69 54 25 2 344 279 261 265 294 306 311 311 307 296 273 296 290 294 301 302 311 308 309 306